Time,TemperatureF,DewpointF,PressureIn,WindDirection,WindDirectionDegrees,WindSpeedMPH,WindSpeedGustMPH,Humidity,HourlyPrecipIn,Conditions,Clouds,dailyrainin,SoftwareType,DateUTC
2013-03-28 00:00:00,40.2,31.2,29.89,NW,322,7.0,7.0,70,0.00,,---,0.00,VWS V14.00,2013-03-28 04:00:00,
2013-03-28 00:02:00,40.1,31.1,29.89,NW,314,11.0,11.0,70,0.00,,---,0.00,VWS V14.00,2013-03-28 04:02:00,
2013-03-28 00:08:00,40.1,31.5,29.89,NNW,334,7.0,10.0,71,0.00,,---,0.00,VWS V14.00,2013-03-28 04:08:00,
2013-03-28 00:13:00,40.0,31.4,29.89,NW,309,3.0,11.0,71,0.00,,---,0.00,VWS V14.00,2013-03-28 04:13:00,
2013-03-28 00:18:00,40.0,31.4,29.89,NW,326,2.0,13.0,71,0.00,,---,0.00,VWS V14.00,2013-03-28 04:18:00,
2013-03-28 00:23:00,39.8,31.2,29.89,WNW,295,4.0,8.0,71,0.00,,---,0.00,VWS V14.00,2013-03-28 04:23:00,
2013-03-28 00:28:00,39.8,31.2,29.89,NW,314,4.0,11.0,71,0.00,,---,0.00,VWS V14.00,2013-03-28 04:28:00,
2013-03-28 00:33:00,39.7,31.1,29.89,NW,316,5.0,9.0,71,0.00,,---,0.00,VWS V14.00,2013-03-28 04:33:00,
2013-03-28 00:38:00,39.7,31.1,29.89,WSW,255,7.0,9.0,71,0.00,,---,0.00,VWS V14.00,2013-03-28 04:38:00,
2013-03-28 00:43:00,39.6,31.0,29.89,WNW,292,6.0,9.0,71,0.00,,---,0.00,VWS V14.00,2013-03-28 04:43:00,
2013-03-28 00:48:00,39.5,30.9,29.89,West,281,5.0,11.0,71,0.00,,---,0.00,VWS V14.00,2013-03-28 04:48:00,
2013-03-28 00:54:00,39.5,30.9,29.89,WNW,290,11.0,12.0,71,0.00,,---,0.00,VWS V14.00,2013-03-28 04:54:00,
2013-03-28 00:59:00,39.4,31.1,29.89,NNW,330,4.0,4.0,72,0.00,,---,0.00,VWS V14.00,2013-03-28 04:59:00,
2013-03-28 01:04:00,39.3,31.0,29.89,NNW,330,6.0,6.0,72,0.00,,---,0.00,VWS V14.00,2013-03-28 05:04:00,
2013-03-28 01:09:00,39.1,31.2,29.89,NNW,331,5.0,5.0,73,0.00,,---,0.00,VWS V14.00,2013-03-28 05:09:00,
2013-03-28 01:14:00,39.0,31.1,29.89,WNW,283,3.0,10.0,73,0.00,,---,0.00,VWS V14.00,2013-03-28 05:14:00,
2013-03-28 01:19:00,38.9,31.0,29.89,WNW,284,4.0,4.0,73,0.00,,---,0.00,VWS V14.00,2013-03-28 05:19:00,
2013-03-28 01:24:00,38.8,31.2,29.89,NW,325,4.0,6.0,74,0.00,,---,0.00,VWS V14.00,2013-03-28 05:24:00,
2013-03-28 01:29:00,38.8,31.2,29.89,West,264,3.0,4.0,74,0.00,,---,0.00,VWS V14.00,2013-03-28 05:29:00,
2013-03-28 01:34:00,38.7,31.1,29.89,NW,316,6.0,9.0,74,0.00,,---,0.00,VWS V14.00,2013-03-28 05:34:00,
2013-03-28 01:39:00,38.6,30.7,29.89,NW,326,4.0,5.0,73,0.00,,---,0.00,VWS V14.00,2013-03-28 05:39:00,
2013-03-28 01:44:00,38.6,30.7,29.89,NW,321,10.0,10.0,73,0.00,,---,0.00,VWS V14.00,2013-03-28 05:44:00,
2013-03-28 01:49:00,38.5,31.0,29.89,WNW,294,2.0,4.0,74,0.00,,---,0.00,VWS V14.00,2013-03-28 05:49:00,
2013-03-28 01:55:00,38.5,31.0,29.88,NW,319,3.0,6.0,74,0.00,,---,0.00,VWS V14.00,2013-03-28 05:55:00,
2013-03-28 02:00:00,38.5,31.0,29.88,NW,308,5.0,8.0,74,0.00,,---,0.00,VWS V14.00,2013-03-28 06:00:00,
2013-03-28 02:05:00,38.5,30.6,29.88,WSW,257,6.0,6.0,73,0.00,,---,0.00,VWS V14.00,2013-03-28 06:05:00,
2013-03-28 02:10:00,38.6,30.7,29.88,West,276,3.0,5.0,73,0.00,,---,0.00,VWS V14.00,2013-03-28 06:10:00,
2013-03-28 02:15:00,38.5,30.6,29.88,NW,321,6.0,7.0,73,0.00,,---,0.00,VWS V14.00,2013-03-28 06:15:00,
2013-03-28 02:20:00,38.4,30.5,29.88,WNW,290,3.0,4.0,73,0.00,,---,0.00,VWS V14.00,2013-03-28 06:20:00,
2013-03-28 02:25:00,38.3,30.8,29.88,North,349,4.0,7.0,74,0.00,,---,0.00,VWS V14.00,2013-03-28 06:25:00,
2013-03-28 02:30:00,38.3,30.8,29.88,West,280,3.0,4.0,74,0.00,,---,0.00,VWS V14.00,2013-03-28 06:30:00,
2013-03-28 02:35:00,38.3,30.4,29.88,NNW,329,2.0,7.0,73,0.00,,---,0.00,VWS V14.00,2013-03-28 06:35:00,
2013-03-28 02:40:00,38.3,30.4,29.88,WNW,299,3.0,5.0,73,0.00,,---,0.00,VWS V14.00,2013-03-28 06:40:00,
2013-03-28 02:45:00,38.2,30.7,29.88,WNW,287,2.0,9.0,74,0.00,,---,0.00,VWS V14.00,2013-03-28 06:45:00,
2013-03-28 02:51:00,38.1,30.6,29.88,West,280,2.0,6.0,74,0.00,,---,0.00,VWS V14.00,2013-03-28 06:51:00,
2013-03-28 02:56:00,38.1,30.6,29.88,NW,305,4.0,5.0,74,0.00,,---,0.00,VWS V14.00,2013-03-28 06:56:00,
2013-03-28 03:01:00,38.1,30.6,29.88,NW,309,1.0,5.0,74,0.00,,---,0.00,VWS V14.00,2013-03-28 07:01:00,
2013-03-28 03:06:00,38.1,30.6,29.88,WSW,252,1.0,5.0,74,0.00,,---,0.00,VWS V14.00,2013-03-28 07:06:00,
2013-03-28 03:12:00,38.1,30.6,29.88,West,271,1.0,7.0,74,0.00,,---,0.00,VWS V14.00,2013-03-28 07:12:00,
2013-03-28 03:17:00,38.1,30.6,29.88,WNW,298,4.0,5.0,74,0.00,,---,0.00,VWS V14.00,2013-03-28 07:17:00,
2013-03-28 03:22:00,38.1,30.6,29.88,NW,306,4.0,7.0,74,0.00,,---,0.00,VWS V14.00,2013-03-28 07:22:00,
2013-03-28 03:27:00,38.2,30.7,29.88,NNW,328,3.0,6.0,74,0.00,,---,0.00,VWS V14.00,2013-03-28 07:27:00,
2013-03-28 03:32:00,38.1,30.6,29.88,NNW,330,2.0,4.0,74,0.00,,---,0.00,VWS V14.00,2013-03-28 07:32:00,
2013-03-28 03:37:00,38.1,30.6,29.87,NNW,333,2.0,7.0,74,0.00,,---,0.00,VWS V14.00,2013-03-28 07:37:00,
2013-03-28 03:42:00,38.0,30.5,29.87,NW,305,4.0,5.0,74,0.00,,---,0.00,VWS V14.00,2013-03-28 07:42:00,
2013-03-28 03:47:00,38.0,30.5,29.87,NW,319,3.0,6.0,74,0.00,,---,0.00,VWS V14.00,2013-03-28 07:47:00,
2013-03-28 03:52:00,38.1,30.6,29.87,West,263,2.0,8.0,74,0.00,,---,0.00,VWS V14.00,2013-03-28 07:52:00,
2013-03-28 03:57:00,37.9,30.4,29.88,NW,323,3.0,5.0,74,0.00,,---,0.00,VWS V14.00,2013-03-28 07:57:00,
2013-03-28 04:02:00,38.0,30.1,29.87,NW,309,2.0,6.0,73,0.00,,---,0.00,VWS V14.00,2013-03-28 08:02:00,
2013-03-28 04:07:00,38.0,30.1,29.88,WNW,301,3.0,6.0,73,0.00,,---,0.00,VWS V14.00,2013-03-28 08:07:00,
2013-03-28 04:12:00,37.9,30.0,29.88,WSW,248,0.0,6.0,73,0.00,,---,0.00,VWS V14.00,2013-03-28 08:12:00,
2013-03-28 04:17:00,37.7,29.8,29.88,West,274,1.0,2.0,73,0.00,,---,0.00,VWS V14.00,2013-03-28 08:17:00,
2013-03-28 04:22:00,37.6,29.7,29.88,WNW,291,0.0,2.0,73,0.00,,---,0.00,VWS V14.00,2013-03-28 08:22:00,
2013-03-28 04:27:00,37.6,29.7,29.87,WNW,293,1.0,4.0,73,0.00,,---,0.00,VWS V14.00,2013-03-28 08:27:00,
2013-03-28 04:32:00,37.6,29.7,29.87,WNW,289,3.0,3.0,73,0.00,,---,0.00,VWS V14.00,2013-03-28 08:32:00,
2013-03-28 04:37:00,37.6,29.7,29.88,West,275,0.0,4.0,73,0.00,,---,0.00,VWS V14.00,2013-03-28 08:37:00,
2013-03-28 04:43:00,37.5,29.6,29.88,West,280,0.0,5.0,73,0.00,,---,0.00,VWS V14.00,2013-03-28 08:43:00,
2013-03-28 04:48:00,37.3,29.8,29.87,WNW,297,0.0,4.0,74,0.00,,---,0.00,VWS V14.00,2013-03-28 08:48:00,
2013-03-28 04:53:00,37.4,29.9,29.88,WNW,295,1.0,4.0,74,0.00,,---,0.00,VWS V14.00,2013-03-28 08:53:00,
2013-03-28 04:58:00,37.3,29.8,29.88,West,270,0.0,3.0,74,0.00,,---,0.00,VWS V14.00,2013-03-28 08:58:00,
2013-03-28 05:03:00,37.1,29.6,29.88,West,273,0.0,3.0,74,0.00,,---,0.00,VWS V14.00,2013-03-28 09:03:00,
2013-03-28 05:08:00,37.2,30.0,29.88,NW,306,1.0,5.0,75,0.00,,---,0.00,VWS V14.00,2013-03-28 09:08:00,
2013-03-28 05:13:00,37.1,29.9,29.88,West,262,2.0,3.0,75,0.00,,---,0.00,VWS V14.00,2013-03-28 09:13:00,
2013-03-28 05:18:00,37.1,29.9,29.88,WNW,291,2.0,4.0,75,0.00,,---,0.00,VWS V14.00,2013-03-28 09:18:00,
2013-03-28 05:23:00,37.0,29.8,29.88,WNW,293,1.0,3.0,75,0.00,,---,0.00,VWS V14.00,2013-03-28 09:23:00,
2013-03-28 05:28:00,36.9,29.7,29.88,WNW,293,1.0,4.0,75,0.00,,---,0.00,VWS V14.00,2013-03-28 09:28:00,
2013-03-28 05:33:00,36.9,30.0,29.88,West,264,1.0,4.0,76,0.00,,---,0.00,VWS V14.00,2013-03-28 09:33:00,
2013-03-28 05:39:00,36.9,30.0,29.88,West,276,1.0,1.0,76,0.00,,---,0.00,VWS V14.00,2013-03-28 09:39:00,
2013-03-28 05:44:00,36.8,30.0,29.88,West,274,0.0,0.0,76,0.00,,---,0.00,VWS V14.00,2013-03-28 09:44:00,
2013-03-28 05:49:00,36.7,29.9,29.88,WNW,287,1.0,2.0,76,0.00,,---,0.00,VWS V14.00,2013-03-28 09:49:00,
2013-03-28 05:54:00,36.6,30.1,29.88,West,268,1.0,1.0,77,0.00,,---,0.00,VWS V14.00,2013-03-28 09:54:00,
2013-03-28 05:59:00,36.5,30.0,29.88,West,266,0.0,0.0,77,0.00,,---,0.00,VWS V14.00,2013-03-28 09:59:00,
2013-03-28 06:04:00,36.2,29.7,29.88,West,281,1.0,1.0,77,0.00,,---,0.00,VWS V14.00,2013-03-28 10:04:00,
2013-03-28 06:09:00,36.1,29.9,29.88,WSW,245,0.0,1.0,78,0.00,,---,0.00,VWS V14.00,2013-03-28 10:09:00,
2013-03-28 06:14:00,36.0,29.8,29.88,WSW,237,1.0,1.0,78,0.00,,---,0.00,VWS V14.00,2013-03-28 10:14:00,
2013-03-28 06:19:00,35.9,29.7,29.88,West,267,1.0,1.0,78,0.00,,---,0.00,VWS V14.00,2013-03-28 10:19:00,
2013-03-28 06:24:00,36.0,30.1,29.88,WSW,252,1.0,3.0,79,0.00,,---,0.00,VWS V14.00,2013-03-28 10:24:00,
2013-03-28 06:30:00,35.9,30.0,29.89,West,259,0.0,1.0,79,0.00,,---,0.00,VWS V14.00,2013-03-28 10:30:00,
2013-03-28 06:35:00,35.4,29.5,29.89,West,274,1.0,1.0,79,0.00,,---,0.00,VWS V14.00,2013-03-28 10:35:00,
2013-03-28 06:40:00,35.4,29.9,29.89,WNW,285,0.0,0.0,80,0.00,,---,0.00,VWS V14.00,2013-03-28 10:40:00,
2013-03-28 06:45:00,35.3,29.8,29.89,West,273,1.0,2.0,80,0.00,,---,0.00,VWS V14.00,2013-03-28 10:45:00,
2013-03-28 06:50:00,35.4,29.9,29.89,WNW,285,2.0,3.0,80,0.00,,---,0.00,VWS V14.00,2013-03-28 10:50:00,
2013-03-28 06:55:00,35.6,29.7,29.89,WNW,290,1.0,3.0,79,0.00,,---,0.00,VWS V14.00,2013-03-28 10:55:00,
2013-03-28 07:00:00,35.7,29.8,29.89,WNW,300,1.0,3.0,79,0.00,,---,0.00,VWS V14.00,2013-03-28 11:00:00,
2013-03-28 07:05:00,36.1,30.2,29.89,NW,304,1.0,4.0,79,0.00,,---,0.00,VWS V14.00,2013-03-28 11:05:00,
2013-03-28 07:10:00,36.4,30.2,29.89,WNW,288,0.0,2.0,78,0.00,,---,0.00,VWS V14.00,2013-03-28 11:10:00,
2013-03-28 07:15:00,36.7,30.2,29.89,NW,309,0.0,1.0,77,0.00,,---,0.00,VWS V14.00,2013-03-28 11:15:00,
2013-03-28 07:21:00,36.9,30.4,29.90,WNW,298,1.0,4.0,77,0.00,,---,0.00,VWS V14.00,2013-03-28 11:21:00,
2013-03-28 07:26:00,37.3,30.4,29.90,NW,311,1.0,4.0,76,0.00,,---,0.00,VWS V14.00,2013-03-28 11:26:00,
2013-03-28 07:31:00,37.9,30.4,29.90,WNW,301,4.0,7.0,74,0.00,,---,0.00,VWS V14.00,2013-03-28 11:31:00,
2013-03-28 07:36:00,38.3,30.4,29.90,NW,314,1.0,5.0,73,0.00,,---,0.00,VWS V14.00,2013-03-28 11:36:00,
2013-03-28 07:41:00,38.7,30.5,29.90,NW,308,3.0,6.0,72,0.00,,---,0.00,VWS V14.00,2013-03-28 11:41:00,
2013-03-28 07:47:00,39.1,30.5,29.90,NW,309,4.0,8.0,71,0.00,,---,0.00,VWS V14.00,2013-03-28 11:47:00,
2013-03-28 07:52:00,39.5,30.5,29.90,NW,314,0.0,7.0,70,0.00,,---,0.00,VWS V14.00,2013-03-28 11:52:00,
2013-03-28 07:57:00,39.9,30.6,29.90,NW,311,4.0,9.0,69,0.00,,---,0.00,VWS V14.00,2013-03-28 11:57:00,
2013-03-28 08:02:00,40.3,30.6,29.90,WNW,291,2.0,11.0,68,0.00,,---,0.00,VWS V14.00,2013-03-28 12:02:00,
2013-03-28 08:07:00,40.6,30.5,29.91,West,278,5.0,12.0,67,0.00,,---,0.00,VWS V14.00,2013-03-28 12:07:00,
2013-03-28 08:12:00,40.9,30.4,29.91,NW,323,5.0,16.0,66,0.00,,---,0.00,VWS V14.00,2013-03-28 12:12:00,
2013-03-28 08:17:00,41.1,30.6,29.91,NW,325,9.0,14.0,66,0.00,,---,0.00,VWS V14.00,2013-03-28 12:17:00,
2013-03-28 08:22:00,41.2,30.3,29.91,NW,322,6.0,15.0,65,0.00,,---,0.00,VWS V14.00,2013-03-28 12:22:00,
2013-03-28 08:27:00,41.4,30.1,29.91,North,8,7.0,11.0,64,0.00,,---,0.00,VWS V14.00,2013-03-28 12:27:00,
2013-03-28 08:33:00,41.8,30.5,29.91,NNW,328,10.0,16.0,64,0.00,,---,0.00,VWS V14.00,2013-03-28 12:33:00,
2013-03-28 08:38:00,42.0,30.3,29.91,WNW,293,9.0,12.0,63,0.00,,---,0.00,VWS V14.00,2013-03-28 12:38:00,
2013-03-28 08:43:00,42.2,30.5,29.91,NW,316,5.0,14.0,63,0.00,,---,0.00,VWS V14.00,2013-03-28 12:43:00,
2013-03-28 08:48:00,42.5,30.8,29.91,North,9,18.0,18.0,63,0.00,,---,0.00,VWS V14.00,2013-03-28 12:48:00,
2013-03-28 08:53:00,42.5,30.8,29.91,NW,318,7.0,12.0,63,0.00,,---,0.00,VWS V14.00,2013-03-28 12:53:00,
2013-03-28 08:58:00,42.6,30.5,29.91,NW,309,11.0,16.0,62,0.00,,---,0.00,VWS V14.00,2013-03-28 12:58:00,
2013-03-28 09:03:00,43.0,30.9,29.91,NW,317,9.0,14.0,62,0.00,,---,0.00,VWS V14.00,2013-03-28 13:03:00,
2013-03-28 09:08:00,43.1,31.0,29.91,North,349,9.0,15.0,62,0.00,,---,0.00,VWS V14.00,2013-03-28 13:08:00,
2013-03-28 09:13:00,43.3,30.8,29.91,North,359,11.0,17.0,61,0.00,,---,0.00,VWS V14.00,2013-03-28 13:13:00,
2013-03-28 09:18:00,43.2,30.7,29.91,NW,309,15.0,18.0,61,0.00,,---,0.00,VWS V14.00,2013-03-28 13:18:00,
2013-03-28 09:23:00,43.3,30.8,29.91,NW,315,9.0,16.0,61,0.00,,---,0.00,VWS V14.00,2013-03-28 13:23:00,
2013-03-28 09:28:00,43.7,30.7,29.91,NNW,333,8.0,15.0,60,0.00,,---,0.00,VWS V14.00,2013-03-28 13:28:00,
2013-03-28 09:33:00,44.0,31.0,29.91,North,353,10.0,17.0,60,0.00,,---,0.00,VWS V14.00,2013-03-28 13:33:00,
2013-03-28 09:38:00,44.0,30.6,29.91,NW,321,10.0,16.0,59,0.00,,---,0.00,VWS V14.00,2013-03-28 13:38:00,
2013-03-28 09:43:00,44.2,30.4,29.91,North,351,7.0,16.0,58,0.00,,---,0.00,VWS V14.00,2013-03-28 13:43:00,
2013-03-28 09:48:00,44.6,30.8,29.91,NNW,340,7.0,13.0,58,0.00,,---,0.00,VWS V14.00,2013-03-28 13:48:00,
2013-03-28 09:53:00,45.0,30.7,29.91,NNW,338,9.0,14.0,57,0.00,,---,0.00,VWS V14.00,2013-03-28 13:53:00,
2013-03-28 09:58:00,45.0,30.3,29.91,NW,308,8.0,15.0,56,0.00,,---,0.00,VWS V14.00,2013-03-28 13:58:00,
2013-03-28 10:03:00,45.4,30.2,29.91,NNW,336,7.0,13.0,55,0.00,,---,0.00,VWS V14.00,2013-03-28 14:03:00,
2013-03-28 10:08:00,45.4,30.2,29.91,North,8,6.0,19.0,55,0.00,,---,0.00,VWS V14.00,2013-03-28 14:08:00,
2013-03-28 10:13:00,45.6,30.4,29.92,NNW,341,5.0,14.0,55,0.00,,---,0.00,VWS V14.00,2013-03-28 14:13:00,
2013-03-28 10:18:00,45.6,30.4,29.91,NW,312,11.0,13.0,55,0.00,,---,0.00,VWS V14.00,2013-03-28 14:18:00,
2013-03-28 10:23:00,45.6,30.4,29.92,NW,324,14.0,19.0,55,0.00,,---,0.00,VWS V14.00,2013-03-28 14:23:00,
2013-03-28 10:28:00,45.6,29.9,29.92,NW,319,8.0,14.0,54,0.00,,---,0.00,VWS V14.00,2013-03-28 14:28:00,
2013-03-28 10:33:00,45.8,30.1,29.92,NW,322,10.0,10.0,54,0.00,,---,0.00,VWS V14.00,2013-03-28 14:33:00,
2013-03-28 10:39:00,45.7,30.5,29.92,NW,310,11.0,12.0,55,0.00,,---,0.00,VWS V14.00,2013-03-28 14:39:00,
2013-03-28 10:44:00,45.8,30.1,29.92,North,355,7.0,7.0,54,0.00,,---,0.00,VWS V14.00,2013-03-28 14:44:00,
2013-03-28 10:49:00,46.1,30.4,29.92,NNE,20,11.0,11.0,54,0.00,,---,0.00,VWS V14.00,2013-03-28 14:49:00,
2013-03-28 10:54:00,46.0,30.3,29.92,NNE,29,8.0,9.0,54,0.00,,---,0.00,VWS V14.00,2013-03-28 14:54:00,
2013-03-28 10:59:00,46.1,30.4,29.92,NW,322,11.0,11.0,54,0.00,,---,0.00,VWS V14.00,2013-03-28 14:59:00,
2013-03-28 11:04:00,46.3,30.1,29.92,NW,310,6.0,7.0,53,0.00,,---,0.00,VWS V14.00,2013-03-28 15:04:00,
2013-03-28 11:09:00,46.7,30.5,29.92,NNW,329,10.0,14.0,53,0.00,,---,0.00,VWS V14.00,2013-03-28 15:09:00,
2013-03-28 11:14:00,46.8,29.6,29.92,NNE,19,9.0,13.0,51,0.00,,---,0.00,VWS V14.00,2013-03-28 15:14:00,
2013-03-28 11:19:00,46.9,30.2,29.92,NNE,32,8.0,8.0,52,0.00,,---,0.00,VWS V14.00,2013-03-28 15:19:00,
2013-03-28 11:24:00,47.1,29.9,29.92,NE,39,11.0,11.0,51,0.00,,---,0.00,VWS V14.00,2013-03-28 15:24:00,
2013-03-28 11:29:00,46.7,29.5,29.92,North,8,9.0,11.0,51,0.00,,---,0.00,VWS V14.00,2013-03-28 15:29:00,
2013-03-28 11:34:00,46.8,29.2,29.92,NNE,31,6.0,12.0,50,0.00,,---,0.00,VWS V14.00,2013-03-28 15:34:00,
2013-03-28 11:39:00,47.2,29.5,29.92,NW,326,10.0,14.0,50,0.00,,---,0.00,VWS V14.00,2013-03-28 15:39:00,
2013-03-28 11:44:00,47.0,29.3,29.92,NNW,342,6.0,13.0,50,0.00,,---,0.00,VWS V14.00,2013-03-28 15:44:00,
2013-03-28 11:49:00,47.1,29.4,29.92,NW,318,9.0,16.0,50,0.00,,---,0.00,VWS V14.00,2013-03-28 15:49:00,
2013-03-28 11:54:00,47.0,29.3,29.92,ENE,59,9.0,9.0,50,0.00,,---,0.00,VWS V14.00,2013-03-28 15:54:00,
2013-03-28 12:00:00,47.1,28.9,29.92,NNE,13,12.0,14.0,49,0.00,,---,0.00,VWS V14.00,2013-03-28 16:00:00,
2013-03-28 12:05:00,47.4,29.2,29.92,North,352,10.0,12.0,49,0.00,,---,0.00,VWS V14.00,2013-03-28 16:05:00,
2013-03-28 12:10:00,47.2,29.0,29.92,North,353,11.0,16.0,49,0.00,,---,0.00,VWS V14.00,2013-03-28 16:10:00,
2013-03-28 12:15:00,47.2,29.0,29.92,NNE,28,2.0,11.0,49,0.00,,---,0.00,VWS V14.00,2013-03-28 16:15:00,
2013-03-28 12:20:00,47.9,29.7,29.92,NW,316,11.0,15.0,49,0.00,,---,0.00,VWS V14.00,2013-03-28 16:20:00,
2013-03-28 12:25:00,47.6,29.4,29.92,NNW,336,7.0,14.0,49,0.00,,---,0.00,VWS V14.00,2013-03-28 16:25:00,
2013-03-28 12:30:00,47.7,30.0,29.92,North,360,7.0,9.0,50,0.00,,---,0.00,VWS V14.00,2013-03-28 16:30:00,
2013-03-28 12:35:00,47.2,31.4,29.92,NNE,26,9.0,13.0,54,0.00,,---,0.00,VWS V14.00,2013-03-28 16:35:00,
2013-03-28 12:40:00,46.4,30.7,29.92,NNE,33,7.0,11.0,54,0.00,,---,0.00,VWS V14.00,2013-03-28 16:40:00,
2013-03-28 12:45:00,46.7,31.4,29.92,NNE,13,7.0,9.0,55,0.00,,---,0.00,VWS V14.00,2013-03-28 16:45:00,
2013-03-28 12:50:00,46.8,31.5,29.92,NNE,22,4.0,10.0,55,0.00,,---,0.00,VWS V14.00,2013-03-28 16:50:00,
2013-03-28 12:55:00,47.0,31.7,29.92,NNE,29,6.0,12.0,55,0.00,,---,0.00,VWS V14.00,2013-03-28 16:55:00,
2013-03-28 13:01:00,46.8,32.8,29.92,NNE,30,4.0,15.0,58,0.00,,---,0.00,VWS V14.00,2013-03-28 17:01:00,
2013-03-28 13:06:00,46.8,32.0,29.92,NE,37,9.0,13.0,56,0.00,,---,0.00,VWS V14.00,2013-03-28 17:06:00,
2013-03-28 13:11:00,47.3,31.0,29.92,NNE,15,8.0,14.0,53,0.00,,---,0.00,VWS V14.00,2013-03-28 17:11:00,
2013-03-28 13:16:00,48.2,30.9,29.92,North,8,9.0,14.0,51,0.00,,---,0.00,VWS V14.00,2013-03-28 17:16:00,
2013-03-28 13:21:00,48.4,31.1,29.91,NNW,341,10.0,12.0,51,0.00,,---,0.00,VWS V14.00,2013-03-28 17:21:00,
2013-03-28 13:26:00,48.7,30.4,29.91,NE,51,8.0,17.0,49,0.00,,---,0.00,VWS V14.00,2013-03-28 17:26:00,
2013-03-28 13:31:00,49.0,30.7,29.91,NNW,345,11.0,17.0,49,0.00,,---,0.00,VWS V14.00,2013-03-28 17:31:00,
2013-03-28 13:36:00,48.8,31.0,29.91,NW,326,11.0,14.0,50,0.00,,---,0.00,VWS V14.00,2013-03-28 17:36:00,
2013-03-28 13:41:00,48.3,31.5,29.91,NE,40,10.0,15.0,52,0.00,,---,0.00,VWS V14.00,2013-03-28 17:41:00,
2013-03-28 13:47:00,48.1,31.3,29.91,NE,43,6.0,13.0,52,0.00,,---,0.00,VWS V14.00,2013-03-28 17:47:00,
2013-03-28 13:52:00,48.6,31.8,29.91,NNE,18,9.0,17.0,52,0.00,,---,0.00,VWS V14.00,2013-03-28 17:52:00,
2013-03-28 13:57:00,49.1,31.3,29.91,North,6,10.0,17.0,50,0.00,,---,0.00,VWS V14.00,2013-03-28 17:57:00,
2013-03-28 14:02:00,49.3,31.0,29.91,WNW,302,11.0,13.0,49,0.00,,---,0.00,VWS V14.00,2013-03-28 18:02:00,
2013-03-28 14:07:00,49.2,30.9,29.91,North,9,14.0,16.0,49,0.00,,---,0.00,VWS V14.00,2013-03-28 18:07:00,
2013-03-28 14:12:00,48.4,33.0,29.92,NW,323,7.0,20.0,55,0.00,,---,0.00,VWS V14.00,2013-03-28 18:12:00,
2013-03-28 14:17:00,48.1,32.7,29.91,NNW,329,13.0,15.0,55,0.00,,---,0.00,VWS V14.00,2013-03-28 18:17:00,
2013-03-28 14:22:00,48.0,32.2,29.91,NNE,30,10.0,15.0,54,0.00,,---,0.00,VWS V14.00,2013-03-28 18:22:00,
2013-03-28 14:27:00,47.9,31.1,29.91,NNW,330,11.0,15.0,52,0.00,,---,0.00,VWS V14.00,2013-03-28 18:27:00,
2013-03-28 14:32:00,48.4,31.6,29.91,North,358,9.0,13.0,52,0.00,,---,0.00,VWS V14.00,2013-03-28 18:32:00,
2013-03-28 14:37:00,49.0,31.7,29.91,NNE,29,6.0,16.0,51,0.00,,---,0.00,VWS V14.00,2013-03-28 18:37:00,
2013-03-28 14:43:00,49.0,31.7,29.91,NW,318,5.0,15.0,51,0.00,,---,0.00,VWS V14.00,2013-03-28 18:43:00,
2013-03-28 14:48:00,49.3,32.0,29.91,NNE,13,6.0,9.0,51,0.00,,---,0.00,VWS V14.00,2013-03-28 18:48:00,
2013-03-28 14:53:00,49.3,31.5,29.91,NE,44,11.0,15.0,50,0.00,,---,0.00,VWS V14.00,2013-03-28 18:53:00,
2013-03-28 14:58:00,49.3,31.5,29.91,NW,311,5.0,15.0,50,0.00,,---,0.00,VWS V14.00,2013-03-28 18:58:00,
2013-03-28 15:03:00,49.3,31.5,29.91,NW,310,10.0,10.0,50,0.00,,---,0.00,VWS V14.00,2013-03-28 19:03:00,
2013-03-28 15:08:00,49.1,31.3,29.91,NNW,329,10.0,12.0,50,0.00,,---,0.00,VWS V14.00,2013-03-28 19:08:00,
2013-03-28 15:13:00,49.1,31.8,29.91,NW,319,3.0,11.0,51,0.00,,---,0.00,VWS V14.00,2013-03-28 19:13:00,
2013-03-28 15:18:00,46.8,35.3,29.92,NE,44,10.0,23.0,64,0.00,,---,0.00,VWS V14.00,2013-03-28 19:18:00,
2013-03-28 15:23:00,45.7,36.1,29.92,NNW,341,8.0,14.0,69,0.00,,---,0.00,VWS V14.00,2013-03-28 19:23:00,
2013-03-28 15:28:00,45.4,36.2,29.92,NNW,328,9.0,12.0,70,0.00,,---,0.00,VWS V14.00,2013-03-28 19:28:00,
2013-03-28 15:33:00,45.4,35.8,29.92,West,275,4.0,12.0,69,0.00,,---,0.00,VWS V14.00,2013-03-28 19:33:00,
2013-03-28 15:38:00,45.7,35.8,29.92,NNW,328,4.0,7.0,68,0.00,,---,0.00,VWS V14.00,2013-03-28 19:38:00,
2013-03-28 15:43:00,46.1,36.1,29.91,NW,311,2.0,5.0,68,0.00,,---,0.00,VWS V14.00,2013-03-28 19:43:00,
2013-03-28 15:48:00,46.4,36.0,29.91,NNW,341,3.0,5.0,67,0.00,,---,0.00,VWS V14.00,2013-03-28 19:48:00,
2013-03-28 15:53:00,46.9,35.8,29.91,WNW,298,0.0,6.0,65,0.00,,---,0.00,VWS V14.00,2013-03-28 19:53:00,
2013-03-28 15:58:00,47.6,35.2,29.91,WNW,283,2.0,7.0,62,0.00,,---,0.00,VWS V14.00,2013-03-28 19:58:00,
2013-03-28 16:03:00,48.0,35.2,29.91,NW,317,2.0,10.0,61,0.00,,---,0.00,VWS V14.00,2013-03-28 20:03:00,
2013-03-28 16:08:00,48.0,35.6,29.91,NE,56,3.0,5.0,62,0.00,,---,0.00,VWS V14.00,2013-03-28 20:08:00,
2013-03-28 16:13:00,48.1,34.0,29.91,NNE,17,10.0,14.0,58,0.00,,---,0.00,VWS V14.00,2013-03-28 20:13:00,
2013-03-28 16:18:00,48.2,33.3,29.91,NNE,23,8.0,13.0,56,0.00,,---,0.00,VWS V14.00,2013-03-28 20:18:00,
2013-03-28 16:23:00,48.5,34.0,29.91,NW,321,8.0,10.0,57,0.00,,---,0.00,VWS V14.00,2013-03-28 20:23:00,
2013-03-28 16:28:00,48.7,33.3,29.91,North,349,8.0,10.0,55,0.00,,---,0.00,VWS V14.00,2013-03-28 20:28:00,
2013-03-28 16:33:00,48.8,32.4,29.91,NNE,18,9.0,16.0,53,0.00,,---,0.00,VWS V14.00,2013-03-28 20:33:00,
2013-03-28 16:38:00,48.8,32.9,29.91,NW,319,10.0,14.0,54,0.00,,---,0.00,VWS V14.00,2013-03-28 20:38:00,
2013-03-28 16:43:00,48.9,32.5,29.91,NW,326,7.0,13.0,53,0.00,,---,0.00,VWS V14.00,2013-03-28 20:43:00,
2013-03-28 16:48:00,49.1,32.7,29.92,NE,40,5.0,9.0,53,0.00,,---,0.00,VWS V14.00,2013-03-28 20:48:00,
2013-03-28 16:53:00,49.2,31.9,29.91,NNE,31,7.0,11.0,51,0.00,,---,0.00,VWS V14.00,2013-03-28 20:53:00,
2013-03-28 16:58:00,49.5,32.1,29.92,North,11,5.0,5.0,51,0.00,,---,0.00,VWS V14.00,2013-03-28 20:58:00,
2013-03-28 17:04:00,49.5,31.6,29.92,NW,319,7.0,14.0,50,0.00,,---,0.00,VWS V14.00,2013-03-28 21:04:00,
2013-03-28 17:09:00,49.6,31.7,29.92,NNW,330,5.0,5.0,50,0.00,,---,0.00,VWS V14.00,2013-03-28 21:09:00,
2013-03-28 17:14:00,49.6,31.7,29.92,NNW,335,5.0,9.0,50,0.00,,---,0.00,VWS V14.00,2013-03-28 21:14:00,
2013-03-28 17:19:00,49.4,32.0,29.92,NW,319,11.0,11.0,51,0.00,,---,0.00,VWS V14.00,2013-03-28 21:19:00,
2013-03-28 17:24:00,48.9,32.5,29.93,NNW,333,11.0,11.0,53,0.00,,---,0.00,VWS V14.00,2013-03-28 21:24:00,
2013-03-28 17:29:00,48.5,32.6,29.93,NNW,342,14.0,14.0,54,0.00,,---,0.00,VWS V14.00,2013-03-28 21:29:00,
2013-03-28 17:34:00,48.5,31.7,29.93,NNW,331,9.0,13.0,52,0.00,,---,0.00,VWS V14.00,2013-03-28 21:34:00,
2013-03-28 17:39:00,48.5,32.2,29.93,NW,318,6.0,14.0,53,0.00,,---,0.00,VWS V14.00,2013-03-28 21:39:00,
2013-03-28 17:44:00,48.5,32.2,29.93,NNW,335,11.0,17.0,53,0.00,,---,0.00,VWS V14.00,2013-03-28 21:44:00,
2013-03-28 17:49:00,48.4,32.1,29.93,NNW,336,9.0,11.0,53,0.00,,---,0.00,VWS V14.00,2013-03-28 21:49:00,
2013-03-28 17:54:00,48.2,32.8,29.94,NNW,342,3.0,11.0,55,0.00,,---,0.00,VWS V14.00,2013-03-28 21:54:00,
2013-03-28 18:00:00,47.8,32.4,29.94,NNW,344,6.0,9.0,55,0.00,,---,0.00,VWS V14.00,2013-03-28 22:00:00,
2013-03-28 18:05:00,47.8,32.4,29.94,NW,316,11.0,13.0,55,0.00,,---,0.00,VWS V14.00,2013-03-28 22:05:00,
2013-03-28 18:10:00,47.8,32.4,29.94,NW,319,10.0,11.0,55,0.00,,---,0.00,VWS V14.00,2013-03-28 22:10:00,
2013-03-28 18:15:00,47.8,32.4,29.94,WNW,297,2.0,8.0,55,0.00,,---,0.00,VWS V14.00,2013-03-28 22:15:00,
2013-03-28 18:20:00,48.0,32.2,29.94,NNW,345,6.0,10.0,54,0.00,,---,0.00,VWS V14.00,2013-03-28 22:20:00,
2013-03-28 18:25:00,48.0,32.2,29.94,NNW,347,12.0,12.0,54,0.00,,---,0.00,VWS V14.00,2013-03-28 22:25:00,
2013-03-28 18:30:00,48.0,31.7,29.95,NW,322,7.0,13.0,53,0.00,,---,0.00,VWS V14.00,2013-03-28 22:30:00,
2013-03-28 18:35:00,47.9,31.6,29.95,NNW,330,7.0,12.0,53,0.00,,---,0.00,VWS V14.00,2013-03-28 22:35:00,
2013-03-28 18:40:00,47.9,31.6,29.95,NNW,345,7.0,13.0,53,0.00,,---,0.00,VWS V14.00,2013-03-28 22:40:00,
2013-03-28 18:45:00,47.9,31.6,29.95,NNW,345,7.0,9.0,53,0.00,,---,0.00,VWS V14.00,2013-03-28 22:45:00,
2013-03-28 18:50:00,47.9,31.6,29.95,North,354,7.0,9.0,53,0.00,,---,0.00,VWS V14.00,2013-03-28 22:50:00,
2013-03-28 18:56:00,47.8,31.5,29.95,NW,305,6.0,8.0,53,0.00,,---,0.00,VWS V14.00,2013-03-28 22:56:00,
2013-03-28 19:01:00,47.8,31.5,29.96,North,354,6.0,11.0,53,0.00,,---,0.00,VWS V14.00,2013-03-28 23:01:00,
2013-03-28 19:06:00,47.8,31.5,29.96,NNW,333,7.0,16.0,53,0.00,,---,0.00,VWS V14.00,2013-03-28 23:06:00,
2013-03-28 19:11:00,47.7,31.4,29.96,NNW,338,4.0,10.0,53,0.00,,---,0.00,VWS V14.00,2013-03-28 23:11:00,
2013-03-28 19:16:00,47.7,31.4,29.96,North,350,11.0,12.0,53,0.00,,---,0.00,VWS V14.00,2013-03-28 23:16:00,
2013-03-28 19:21:00,47.6,31.8,29.97,NW,326,10.0,16.0,54,0.00,,---,0.00,VWS V14.00,2013-03-28 23:21:00,
2013-03-28 19:26:00,47.5,31.7,29.97,NNW,340,9.0,9.0,54,0.00,,---,0.00,VWS V14.00,2013-03-28 23:26:00,
2013-03-28 19:32:00,47.3,31.5,29.97,NW,316,5.0,11.0,54,0.00,,---,0.00,VWS V14.00,2013-03-28 23:32:00,
2013-03-28 19:37:00,47.3,32.0,29.97,NW,322,6.0,17.0,55,0.00,,---,0.00,VWS V14.00,2013-03-28 23:37:00,
2013-03-28 19:42:00,47.2,31.9,29.97,NNW,330,6.0,13.0,55,0.00,,---,0.00,VWS V14.00,2013-03-28 23:42:00,
2013-03-28 19:47:00,47.2,31.9,29.97,NW,316,7.0,11.0,55,0.00,,---,0.00,VWS V14.00,2013-03-28 23:47:00,
2013-03-28 19:52:00,47.1,31.8,29.98,NW,326,9.0,10.0,55,0.00,,---,0.00,VWS V14.00,2013-03-28 23:52:00,
2013-03-28 19:57:00,47.1,31.8,29.98,NNW,340,9.0,16.0,55,0.00,,---,0.00,VWS V14.00,2013-03-28 23:57:00,
2013-03-28 20:02:00,47.1,31.8,29.98,NW,321,4.0,12.0,55,0.00,,---,0.00,VWS V14.00,2013-03-29 00:02:00,
2013-03-28 20:07:00,47.0,31.7,29.98,NNW,340,12.0,15.0,55,0.00,,---,0.00,VWS V14.00,2013-03-29 00:07:00,
2013-03-28 20:13:00,47.0,31.7,29.98,WNW,302,4.0,12.0,55,0.00,,---,0.00,VWS V14.00,2013-03-29 00:13:00,
2013-03-28 20:18:00,46.9,31.6,29.98,NW,314,6.0,12.0,55,0.00,,---,0.00,VWS V14.00,2013-03-29 00:18:00,
2013-03-28 20:23:00,46.9,31.6,29.98,NNW,329,2.0,14.0,55,0.00,,---,0.00,VWS V14.00,2013-03-29 00:23:00,
2013-03-28 20:28:00,46.9,31.6,29.99,NW,311,8.0,10.0,55,0.00,,---,0.00,VWS V14.00,2013-03-29 00:28:00,
2013-03-28 20:33:00,46.9,31.6,29.99,North,9,5.0,13.0,55,0.00,,---,0.00,VWS V14.00,2013-03-29 00:33:00,
2013-03-28 20:38:00,46.8,32.0,29.99,SSW,210,1.0,12.0,56,0.00,,---,0.00,VWS V14.00,2013-03-29 00:38:00,
2013-03-28 20:43:00,46.8,32.0,29.99,NW,321,7.0,13.0,56,0.00,,---,0.00,VWS V14.00,2013-03-29 00:43:00,
2013-03-28 20:48:00,46.7,31.9,29.99,NW,307,5.0,13.0,56,0.00,,---,0.00,VWS V14.00,2013-03-29 00:48:00,
2013-03-28 20:53:00,46.7,31.9,29.99,WNW,294,7.0,15.0,56,0.00,,---,0.00,VWS V14.00,2013-03-29 00:53:00,
2013-03-28 20:58:00,46.7,31.9,29.99,WNW,295,6.0,10.0,56,0.00,,---,0.00,VWS V14.00,2013-03-29 00:58:00,
2013-03-28 21:03:00,46.6,31.8,29.99,NW,314,6.0,14.0,56,0.00,,---,0.00,VWS V14.00,2013-03-29 01:03:00,
2013-03-28 21:08:00,46.5,31.7,30.00,NW,314,4.0,13.0,56,0.00,,---,0.00,VWS V14.00,2013-03-29 01:08:00,
2013-03-28 21:13:00,46.5,31.7,30.00,NW,326,5.0,12.0,56,0.00,,---,0.00,VWS V14.00,2013-03-29 01:13:00,
2013-03-28 21:18:00,46.5,31.7,30.00,NW,309,6.0,11.0,56,0.00,,---,0.00,VWS V14.00,2013-03-29 01:18:00,
2013-03-28 21:23:00,46.4,32.0,30.00,West,277,4.0,10.0,57,0.00,,---,0.00,VWS V14.00,2013-03-29 01:23:00,
2013-03-28 21:28:00,46.3,31.9,30.00,NW,314,4.0,11.0,57,0.00,,---,0.00,VWS V14.00,2013-03-29 01:28:00,
2013-03-28 21:33:00,46.1,31.7,30.00,NNW,345,14.0,16.0,57,0.00,,---,0.00,VWS V14.00,2013-03-29 01:33:00,
2013-03-28 21:38:00,46.0,31.6,30.00,NW,310,5.0,15.0,57,0.00,,---,0.00,VWS V14.00,2013-03-29 01:38:00,
2013-03-28 21:43:00,45.7,31.8,30.00,NW,319,8.0,13.0,58,0.00,,---,0.00,VWS V14.00,2013-03-29 01:43:00,
2013-03-28 21:48:00,45.6,31.7,30.01,NNE,16,5.0,9.0,58,0.00,,---,0.00,VWS V14.00,2013-03-29 01:48:00,
2013-03-28 21:53:00,45.5,31.6,30.01,NW,318,7.0,10.0,58,0.00,,---,0.00,VWS V14.00,2013-03-29 01:53:00,
2013-03-28 21:59:00,45.3,31.8,30.01,NW,314,3.0,11.0,59,0.00,,---,0.00,VWS V14.00,2013-03-29 01:59:00,
2013-03-28 22:04:00,45.2,31.7,30.01,WNW,300,4.0,4.0,59,0.00,,---,0.00,VWS V14.00,2013-03-29 02:04:00,
2013-03-28 22:09:00,45.1,31.6,30.01,WNW,299,3.0,3.0,59,0.00,,---,0.00,VWS V14.00,2013-03-29 02:09:00,
2013-03-28 22:14:00,44.8,31.8,30.01,NW,309,0.0,1.0,60,0.00,,---,0.00,VWS V14.00,2013-03-29 02:14:00,
2013-03-28 22:19:00,44.7,31.7,30.01,NW,316,5.0,5.0,60,0.00,,---,0.00,VWS V14.00,2013-03-29 02:19:00,
2013-03-28 22:24:00,44.6,31.6,30.01,WNW,301,2.0,5.0,60,0.00,,---,0.00,VWS V14.00,2013-03-29 02:24:00,
2013-03-28 22:29:00,44.5,31.5,30.02,NNE,20,3.0,4.0,60,0.00,,---,0.00,VWS V14.00,2013-03-29 02:29:00,
2013-03-28 22:34:00,44.3,31.7,30.01,NW,307,4.0,4.0,61,0.00,,---,0.00,VWS V14.00,2013-03-29 02:34:00,
2013-03-28 22:39:00,44.1,31.5,30.01,NW,307,1.0,1.0,61,0.00,,---,0.00,VWS V14.00,2013-03-29 02:39:00,
2013-03-28 22:44:00,43.9,31.7,30.01,NW,314,2.0,3.0,62,0.00,,---,0.00,VWS V14.00,2013-03-29 02:44:00,
2013-03-28 22:49:00,43.8,31.6,30.02,NW,321,7.0,7.0,62,0.00,,---,0.00,VWS V14.00,2013-03-29 02:49:00,
2013-03-28 22:54:00,44.0,31.4,30.02,NNW,328,4.0,7.0,61,0.00,,---,0.00,VWS V14.00,2013-03-29 02:54:00,
2013-03-28 22:59:00,44.1,31.9,30.02,NW,322,1.0,3.0,62,0.00,,---,0.00,VWS V14.00,2013-03-29 02:59:00,
2013-03-28 23:04:00,44.0,31.8,30.02,NW,316,3.0,4.0,62,0.00,,---,0.00,VWS V14.00,2013-03-29 03:04:00,
2013-03-28 23:10:00,44.1,31.5,30.02,NW,318,4.0,10.0,61,0.00,,---,0.00,VWS V14.00,2013-03-29 03:10:00,
2013-03-28 23:15:00,44.1,31.5,30.02,NNW,346,5.0,7.0,61,0.00,,---,0.00,VWS V14.00,2013-03-29 03:15:00,
2013-03-28 23:20:00,44.1,31.5,30.02,NW,323,4.0,5.0,61,0.00,,---,0.00,VWS V14.00,2013-03-29 03:20:00,
2013-03-28 23:25:00,44.1,31.5,30.02,NNW,333,3.0,6.0,61,0.00,,---,0.00,VWS V14.00,2013-03-29 03:25:00,
2013-03-28 23:30:00,43.9,31.7,30.02,NW,321,2.0,5.0,62,0.00,,---,0.00,VWS V14.00,2013-03-29 03:30:00,
2013-03-28 23:35:00,43.8,31.6,30.02,NNE,18,2.0,4.0,62,0.00,,---,0.00,VWS V14.00,2013-03-29 03:35:00,
2013-03-28 23:40:00,43.7,31.5,30.02,NW,326,4.0,5.0,62,0.00,,---,0.00,VWS V14.00,2013-03-29 03:40:00,
2013-03-28 23:46:00,43.7,31.5,30.02,NW,314,3.0,8.0,62,0.00,,---,0.00,VWS V14.00,2013-03-29 03:46:00,
2013-03-28 23:51:00,43.5,31.4,30.02,WNW,293,3.0,5.0,62,0.00,,---,0.00,VWS V14.00,2013-03-29 03:51:00,
2013-03-28 23:56:00,43.3,31.6,30.02,NW,307,3.0,5.0,63,0.00,,---,0.00,VWS V14.00,2013-03-29 03:56:00,